[[{"header":{"parameterUnit":"m.s-1","parameterCategory":1,"la1":30.2991,"la2":30.254,"lo1":-89.0895,"lo2":-89.0444,"dy":0.0017,"dx":0.0017,"nx":28,"ny":28,"refTime":"2024-12-09T03:00:00:Z","depth":0,"parameterNumber":2,"parameterNumberName":"U-component_of_WINDS"},"data":[0,0,0,0,0,0,0,0,0,0,0,0,0,0,0,0,0,0,0,0,0,0,0,0,0,0,0,0,0,0,0,0,0,0,0,0,0,0,0,0,0,0,0,0,0,0,0,0,0,0,0,0,0,0,0,0,0,0,2.2993,2.2993,0,2.3003,2.3003,2.3003,2.2951,2.295,2.2948,2.2947,2.2961,2.2963,2.2965,0,0,0,0,0,0,0,0,0,0,0,0,0,2.2933,2.2934,2.2993,2.2993,2.2993,2.3003,2.3003,2.3003,2.2952,2.295,2.2948,2.2946,2.2961,2.2963,2.2965,0,0,0,0,0,0,0,0,0,0,0,0,0,2.2953,2.2934,2.2993,2.2969,2.2966,2.3003,2.3003,2.3003,2.2952,2.295,2.2948,2.2945,2.296,2.2962,2.2965,2.3027,0,0,2.2973,2.2974,0,0,0,0,0,0,0,0,2.2951,2.2955,2.2972,2.297,2.2968,2.2974,2.2987,2.3011,2.2953,2.2958,2.2947,2.2944,2.2967,2.2969,2.2976,2.3027,2.3028,2.2973,2.2975,2.2976,2.2977,0,0,0,0,0,0,0,2.295,2.2954,2.2997,2.2972,2.297,2.2958,2.2959,2.2991,2.2975,2.2957,2.2953,2.2955,2.2966,2.2974,2.2976,2.3028,2.2973,2.2976,2.2977,2.2978,2.3131,2.3133,0,0,0,0,0,0,2.2951,2.2953,2.2997,2.2997,2.2954,2.2961,2.2962,2.2974,2.2975,2.2972,2.2957,2.2953,2.297,2.2973,2.2977,2.3049,2.2976,2.2979,2.298,2.3129,2.3132,2.3134,0,0,0,0,0,0,2.295,2.2956,2.2996,2.2974,2.2979,2.2965,2.2979,2.2976,2.2983,2.2974,2.2972,2.2968,2.2969,2.2973,2.3014,2.3049,2.298,2.2982,2.3126,2.313,2.3133,2.3195,0,0,0,0,0,0,2.2949,2.2956,2.2978,2.2975,2.298,2.3033,2.2981,2.2977,2.2988,2.2982,2.2984,2.2982,2.2967,2.3011,2.3017,2.3051,2.2984,2.3123,2.3128,2.3132,2.319,2.32,2.3209,0,0,0,0,0,2.2947,2.2996,2.298,2.2985,2.3007,2.3035,2.3038,2.3019,2.2991,2.3014,2.3008,2.2982,2.3044,2.3016,2.3022,2.3058,2.312,2.3126,2.3132,2.3185,2.3198,2.3209,0,0,0,0,0,0,2.3004,2.2995,2.2977,2.3026,2.3032,2.3027,2.3055,2.3033,2.3048,2.3042,2.3019,2.302,2.3066,2.3066,2.3034,2.3118,2.3077,2.3085,2.3116,2.3128,2.3138,2.3137,2.2987,0,0,0,0,0,2.3023,2.3045,2.3036,2.308,2.3084,2.3069,2.3081,2.3065,2.3071,2.3073,2.3071,2.3078,2.3099,2.3113,2.3132,2.3189,2.3189,2.3217,2.3227,2.3235,2.3241,2.3272,2.3284,2.3152,2.3152,2.3152,0,0,2.3061,2.3059,2.3074,2.3092,2.3094,2.3119,2.3072,2.31,2.3118,2.3078,2.3117,2.3115,2.3122,2.3172,2.3194,2.3173,2.3278,2.3242,2.3248,2.3251,2.3279,2.3292,2.3303,2.3156,2.3156,2.3155,0,0,2.3143,2.3143,2.3181,2.3184,2.3188,2.3178,2.3187,2.3185,2.3182,2.3221,2.3191,2.3213,2.325,2.3256,2.3264,2.3349,2.3326,2.3356,2.3407,2.3437,2.3448,2.3457,2.3488,2.3499,2.3362,2.3363,2.3363,0,2.3191,2.3226,2.3203,2.3233,2.3242,2.3205,2.3244,2.3248,2.3259,2.3267,2.3244,2.3289,2.3291,2.3341,2.3362,2.337,2.338,2.3356,2.3448,2.3457,2.3465,2.3494,2.3506,2.3366,2.3366,2.3365,2.3365,0,2.3284,2.3309,2.3339,2.3349,2.3361,2.3396,2.3379,2.3394,2.3378,2.3371,2.3411,2.3412,2.343,2.3441,2.3426,2.349,2.3477,2.3451,2.3411,2.3481,2.3509,2.352,2.3371,2.337,2.3369,2.3368,0,0,2.3403,2.34,2.3412,2.3416,2.3418,2.3438,2.347,2.3487,2.3502,2.351,2.3538,2.357,2.3545,2.3555,2.354,2.3566,2.3634,2.3537,2.3537,2.3555,2.3706,2.3726,2.3739,2.3618,2.3621,2.3622,2.3705,0,2.3484,2.3539,2.352,2.3576,2.36,2.3565,2.3594,2.3599,2.3593,2.3613,2.3607,2.363,2.3596,2.3601,2.3626,2.3621,2.3664,2.3614,2.3645,2.3647,2.3645,2.3753,2.3774,2.3853,2.3716,2.3718,2.3719,0,2.3586,2.3598,2.3657,2.3655,2.3664,2.369,2.3705,2.3724,2.3729,2.3723,2.3733,2.3713,2.3746,2.3705,2.375,2.3717,2.3728,2.3728,2.3731,2.3733,2.3687,2.376,2.3877,2.389,2.3735,2.3734,2.3733,0,2.3668,2.3699,2.3738,2.3743,2.3742,2.3761,2.3762,2.3765,2.3776,2.3789,2.3797,2.3814,2.3823,2.3838,2.3823,2.3794,2.3871,2.3828,2.3868,2.3869,2.3886,2.3886,2.4009,2.3893,2.3893,2.3893,2.3892,0,2.376,2.3798,2.3774,2.3799,2.384,2.3818,2.386,2.3857,2.386,2.3884,2.3855,2.3879,2.3857,2.3879,2.3867,2.3907,2.3912,2.3909,2.3905,2.3911,2.3912,2.3919,2.3914,2.3896,2.3895,2.3894,2.3894,0,2.3859,2.3844,2.3885,2.3881,2.3881,2.3911,2.3908,2.3931,2.3923,2.3954,2.396,2.3947,2.3971,2.3957,2.3982,2.3975,2.4027,2.4016,2.4025,2.4022,2.4063,2.4059,2.4195,2.4212,2.4085,2.4086,2.4087,0,2.3919,2.3947,2.3946,2.3959,2.3961,2.3984,2.3995,2.3975,2.3988,2.3997,2.4019,2.404,2.4056,2.4096,2.409,2.4109,2.4098,2.4145,2.4101,2.4107,2.41,2.4099,2.4102,2.4154,2.4155,2.4156,2.4157,0,2.4027,2.4019,2.4036,2.4052,2.4066,2.4078,2.4087,2.41,2.4079,2.4096,2.412,2.4132,2.4157,2.4179,2.4195,2.4196,2.4174,2.4171,2.4181,2.4188,2.4193,2.4191,2.405,2.4168,2.4167,2.4166,2.4166,2.4165,2.4109,2.4132,2.4135,2.4156,2.416,2.417,2.4191,2.4185,2.4204,2.4223,2.421,2.4238,2.4243,2.4262,2.4267,2.4289,2.4271,2.4286,2.4289,2.4294,2.4299,2.4188,2.4292,2.4292,2.4292,2.4291,2.4291,0,2.4216,2.4217,2.4236,2.4249,2.4266,2.4242,2.4251,2.4267,2.4292,2.4298,2.4314,2.4342,2.4363,2.4358,2.4378,2.4397,2.4387,2.4402,2.4401,2.4402,2.4315,2.4304,2.441,2.441,2.441,2.441,2.441,2.441,2.4274,2.4313,2.4305,2.4346,2.4346,2.4373,2.4381,2.4389,2.4394,2.4426,2.4443,2.444,2.4442,2.4462,2.448,2.4478,2.4487,2.4507,2.4501,2.442,2.4408,2.4397,2.4387,2.4509,2.4509,2.4587,2.4588,2.4588]},{"header":{"parameterUnit":"m.s-1","parameterCategory":1,"la1":30.2991,"la2":30.254,"lo1":-89.0895,"lo2":-89.0444,"dy":0.0017,"dx":0.0017,"nx":28,"ny":28,"refTime":"2024-12-09T03:00:00:Z","depth":0,"parameterNumber":3,"parameterNumberName":"V-component_of_WINDS"},"data":[0,0,0,0,0,0,0,0,0,0,0,0,0,0,0,0,0,0,0,0,0,0,0,0,0,0,0,0,0,0,0,0,0,0,0,0,0,0,0,0,0,0,0,0,0,0,0,0,0,0,0,0,0,0,0,0,0,0,4.4147,4.4148,0,4.4267,4.4268,4.427,4.4285,4.4284,4.4283,4.4282,4.4406,4.441,4.4415,0,0,0,0,0,0,0,0,0,0,0,0,0,4.3934,4.3937,4.4147,4.4148,4.415,4.4267,4.4268,4.427,4.4285,4.4284,4.4282,4.4281,4.4405,4.441,4.4415,0,0,0,0,0,0,0,0,0,0,0,0,0,4.4037,4.3939,4.4147,4.4171,4.4175,4.4266,4.4268,4.427,4.4286,4.4284,4.4282,4.428,4.4403,4.4409,4.4416,4.4491,0,0,4.4436,4.4439,0,0,0,0,0,0,0,0,4.4031,4.4045,4.4166,4.417,4.4174,4.4259,4.4239,4.4344,4.4286,4.4244,4.4282,4.428,4.4359,4.4369,4.4395,4.4497,4.4502,4.4437,4.4441,4.4443,4.4445,0,0,0,0,0,0,0,4.4024,4.404,4.4194,4.4168,4.4173,4.4178,4.419,4.4259,4.431,4.4247,4.4249,4.4262,4.4361,4.4389,4.4398,4.4504,4.4436,4.4442,4.4446,4.4449,4.4675,4.4677,0,0,0,0,0,0,4.4012,4.4034,4.4191,4.4198,4.4097,4.4183,4.4197,4.4234,4.4309,4.4319,4.4264,4.4263,4.4378,4.4391,4.4403,4.4497,4.4443,4.445,4.4453,4.4673,4.4676,4.4678,0,0,0,0,0,0,4.4007,4.4026,4.4186,4.4116,4.4137,4.4188,4.4229,4.4237,4.4265,4.4321,4.4331,4.4283,4.4378,4.4393,4.4469,4.4502,4.4453,4.4459,4.4671,4.4674,4.4677,4.4686,0,0,0,0,0,0,4.4001,4.4024,4.4053,4.4117,4.4141,4.425,4.4231,4.424,4.4276,4.4276,4.4342,4.4351,4.4377,4.4459,4.4476,4.451,4.4464,4.4668,4.4672,4.4676,4.4683,4.4689,4.4694,0,0,0,0,0,4.3993,4.405,4.4054,4.4073,4.4177,4.4252,4.4265,4.4294,4.4279,4.4309,4.4345,4.4349,4.4495,4.4467,4.4486,4.4522,4.4666,4.4671,4.4676,4.4681,4.4688,4.4694,0,0,0,0,0,0,4.3989,4.4059,4.4064,4.4143,4.4191,4.4254,4.4292,4.43,4.4354,4.4351,4.4385,4.4399,4.4474,4.4506,4.4473,4.46,4.458,4.4588,4.4577,4.4584,4.459,4.4582,4.4469,0,0,0,0,0,4.3997,4.4051,4.4109,4.4174,4.4198,4.4241,4.4274,4.4292,4.4343,4.4364,4.4405,4.4456,4.4513,4.455,4.4606,4.4687,4.4703,4.4722,4.4727,4.4731,4.4739,4.4786,4.4796,4.4693,4.4693,4.4693,0,0,4.4015,4.406,4.4092,4.4174,4.4213,4.427,4.4258,4.4317,4.436,4.4373,4.4448,4.448,4.4538,4.4617,4.4655,4.4646,4.4771,4.4737,4.474,4.4746,4.4792,4.4802,4.481,4.4697,4.4696,4.4696,0,0,4.4076,4.4115,4.4173,4.4213,4.4273,4.4301,4.4315,4.4377,4.4399,4.4474,4.4486,4.4536,4.4634,4.4676,4.4709,4.4787,4.4794,4.4804,4.4834,4.4879,4.4887,4.4894,4.4924,4.4934,4.4811,4.4811,4.4811,0,4.4091,4.4175,4.4203,4.4262,4.4299,4.4313,4.4374,4.4411,4.4486,4.4511,4.45,4.4623,4.4663,4.4754,4.4772,4.4799,4.4817,4.4797,4.4883,4.4891,4.4899,4.4927,4.4938,4.4812,4.4812,4.4812,4.4812,0,4.4191,4.425,4.429,4.4362,4.4403,4.4462,4.45,4.4538,4.4552,4.4582,4.4659,4.4707,4.4774,4.4796,4.481,4.4889,4.4882,4.4877,4.4857,4.4909,4.4936,4.4947,4.4813,4.4813,4.4813,4.4812,0,0,4.4254,4.4341,4.4355,4.4389,4.4456,4.4502,4.4562,4.4627,4.466,4.4711,4.4764,4.4846,4.4842,4.488,4.4899,4.4939,4.4999,4.4929,4.4931,4.4942,4.5091,4.5096,4.5108,4.5003,4.5005,4.5007,4.5087,0,4.4325,4.4433,4.446,4.4553,4.4608,4.4622,4.4675,4.4722,4.4752,4.4803,4.4836,4.4894,4.4884,4.4907,4.4947,4.4983,4.503,4.4978,4.5054,4.5057,4.5041,4.5122,4.5127,4.52,4.5097,4.5099,4.51,0,4.4422,4.4475,4.4573,4.4634,4.4658,4.4706,4.4768,4.4816,4.4871,4.4889,4.4932,4.4947,4.5012,4.4988,4.5078,4.5042,4.5075,4.5097,4.5101,4.5111,4.5083,4.5136,4.5224,4.5235,4.5117,4.5116,4.5115,0,4.446,4.4556,4.4628,4.4656,4.4728,4.4762,4.4793,4.4846,4.4883,4.4937,4.4962,4.5023,4.5057,4.5104,4.5136,4.5115,4.5224,4.5202,4.5243,4.5242,4.5267,4.5265,4.5363,4.5284,4.5284,4.5284,4.5283,0,4.4538,4.4598,4.4647,4.4691,4.4759,4.479,4.4857,4.4889,4.4935,4.4987,4.5002,4.505,4.5088,4.5141,4.5166,4.5238,4.5253,4.5271,4.5277,4.5271,4.5269,4.5294,4.5291,4.5287,4.5286,4.5285,4.5285,0,4.4593,4.4628,4.4708,4.4769,4.4786,4.4834,4.4887,4.4932,4.4961,4.5026,4.5043,4.509,4.5154,4.5189,4.5269,4.5286,4.5367,4.537,4.5349,4.5352,4.5392,4.5388,4.5511,4.553,4.5436,4.5437,4.5438,0,4.4641,4.4688,4.4755,4.479,4.4822,4.4879,4.4918,4.4949,4.4989,4.5055,4.5091,4.5156,4.521,4.5311,4.5352,4.5414,4.5419,4.5458,4.5429,4.5422,4.5423,4.542,4.5426,4.5464,4.5465,4.5465,4.5466,0,4.4723,4.4738,4.4793,4.4854,4.49,4.4949,4.4999,4.5027,4.5067,4.5111,4.5176,4.5218,4.53,4.5365,4.5429,4.5463,4.5472,4.5475,4.5488,4.5483,4.547,4.548,4.5365,4.5472,4.5472,4.5471,4.5471,4.5471,4.4778,4.4821,4.4875,4.4936,4.4976,4.5022,4.5067,4.5102,4.5157,4.5227,4.5242,4.5311,4.5365,4.5453,4.5488,4.5543,4.5536,4.5555,4.556,4.5565,4.5567,4.5459,4.5555,4.5555,4.5555,4.5555,4.5555,0,4.4863,4.4898,4.4954,4.5023,4.5071,4.5074,4.5129,4.5169,4.523,4.528,4.5332,4.5408,4.5471,4.5517,4.5581,4.5617,4.5623,4.5633,4.5632,4.564,4.5569,4.5552,4.5627,4.5627,4.5627,4.5627,4.5627,4.5627,4.4913,4.4986,4.5008,4.5102,4.5137,4.5205,4.5237,4.5279,4.5319,4.5403,4.5456,4.5485,4.5534,4.5601,4.5659,4.5671,4.5695,4.5705,4.5718,4.5652,4.5644,4.5637,4.5622,4.571,4.571,4.5785,4.5785,4.5786]}]]